Weatherford, Texas, United States (76085)
Lat: 32.76N, Lon: 97.8W
Wx Zone: TXZ117
Local Info
Past Weather Observations for Yesterday

NOTE: This archive is for the closest National Weather Service station to Weatherford. Information may differ from the station used for current weather conditions.

Click here for Long-term Archive

Time Weather Temperature Dewpoint Humidity Pressure Winds Precip Visibility
23:53
Clear
75°F / 24°C 73°F / 23°C 94% 30.04 in
(1017 mb)
Calm - 9SM
22:53
Clear
75°F / 24°C 73°F / 23°C 94% 30.04 in
(1017 mb)
ENE 5.8 mph
(ENE 9 kph)
- 10SM
21:53
Clear
75°F / 24°C 73°F / 23°C 94% 30.06 in
(1018 mb)
NNW 5.8 mph
(NNW 9 kph)
- 8SM
20:53
Clear
75°F / 24°C 72°F / 22°C 89% 30.04 in
(1017 mb)
SSE 4.6 mph
(SSE 7 kph)
- 10SM
19:53
Clear
75°F / 24°C 72°F / 22°C 89% 30.06 in
(1018 mb)
Calm 0.00 in
(0.00 mm)
10SM
19:08
Mostly Cloudy
75°F / 24°C 72°F / 22°C 89% 30.06 in
(1018 mb)
Calm - 10SM
18:53
Mostly Cloudy
Thunder Storms
75°F / 24°C 72°F / 22°C 89% 30.06 in
(1018 mb)
N 11.5 mph
(N 19 kph)
0.03 in
(0.76 mm)
10SM
18:18
Overcast
Thunder Storms
79°F / 26°C 72°F / 22°C 79% 30.06 in
(1018 mb)
N 10.4 mph
(N 17 kph)
0.03 in
(0.76 mm)
7SM
18:03
Overcast
Light Rain
77°F / 25°C 73°F / 23°C 89% 30.06 in
(1018 mb)
N 13.8 mph
(N 22 kph)
0.01 in
(0.25 mm)
5SM
17:50
Overcast
Thunder Storms
77°F / 25°C 73°F / 23°C 89% 30.04 in
(1017 mb)
N 10.4 mph
(N 17 kph)
0.43 in
(10.92 mm)
2SM
17:44
Overcast
Thunder Storms
77°F / 25°C 73°F / 23°C 89% 30.04 in
(1017 mb)
NNW 4.6 mph
(NNW 7 kph)
0.41 in
(10.41 mm)
1SM
17:33
Overcast
Thunder Storms
75°F / 24°C 73°F / 23°C 94% 30.04 in
(1017 mb)
NW 6.9 mph
(NW 11 kph)
0.34 in
(8.64 mm)
1SM
17:14
Overcast
Thunder Storms
79°F / 26°C 73°F / 23°C 84% 30.04 in
(1017 mb)
NNE 11.5 mph
(NNE 19 kph)
0.09 in
(2.29 mm)
1 3/4SM
17:02
Overcast
Thunder Storms
77°F / 25°C 72°F / 22°C 83% 30.01 in
(1016 mb)
SSE 5.8 mph
(SSE 9 kph)
0.00 in
(0.00 mm)
6SM
16:53
Overcast
Thunder Storms
75°F / 24°C 72°F / 22°C 89% 30.01 in
(1016 mb)
S 10.4 mph
(S 17 kph)
1.37 in
(34.80 mm)
2 1/2SM
16:49
Overcast
Thunder Storms
75°F / 24°C 72°F / 22°C 89% 30.01 in
(1016 mb)
SSE 15 mph
(SSE 24 kph)
1.34 in
(34.04 mm)
2SM
16:42
Overcast
Thunder Storms
77°F / 25°C 72°F / 22°C 83% 30.04 in
(1017 mb)
S 18.4 mph
(S 30 kph)
1.28 in
(32.51 mm)
1 1/4SM
16:22
Overcast
Thunder Storms
79°F / 26°C 72°F / 22°C 79% 30.04 in
(1017 mb)
S 6.9 mph
(S 11 kph)
0.90 in
(22.86 mm)
1/2SM
16:03
Mostly Cloudy
Thunder Storms
81°F / 27°C 73°F / 23°C 79% 30.01 in
(1016 mb)
NW 21.9 mph
(NW 35 kph)
0.19 in
(4.83 mm)
3/4SM
16:00
Mostly Cloudy
Thunder Storms
84°F / 29°C 73°F / 23°C 70% 30.01 in
(1016 mb)
N 19.6 mph
(N 32 kph)
0.08 in
(2.03 mm)
2SM
15:53
Mostly Cloudy
90°F / 32°C 72°F / 22°C 55% 30.01 in
(1016 mb)
N 8.1 mph
(N 13 kph)
- 10SM
15:46
Partly Cloudy
91°F / 33°C 70°F / 21°C 49% 30.01 in
(1016 mb)
NW 6.9 mph
(NW 11 kph)
- 10SM
15:31
Partly Cloudy
Thunder Storms
93°F / 34°C 70°F / 21°C 47% 30.01 in
(1016 mb)
NNW 5.8 mph
(NNW 9 kph)
- 10SM
14:53
Partly Cloudy
97°F / 36°C 70°F / 21°C 42% 30.01 in
(1016 mb)
E 9.2 mph
(E 15 kph)
- 10SM
14:44
Partly Cloudy
97°F / 36°C 70°F / 21°C 42% 30.01 in
(1016 mb)
E 9.2 mph
(E 15 kph)
- 10SM
14:29
Mostly Cloudy
Thunder Storms
97°F / 36°C 70°F / 21°C 42% 30.01 in
(1016 mb)
ENE 11.5 mph
(ENE 19 kph)
- 10SM
13:53
Clear
100°F / 38°C 70°F / 21°C 37% 30.04 in
(1017 mb)
ENE 12.7 mph
(ENE 20 kph)
- 10SM
12:53
Clear
97°F / 36°C 70°F / 21°C 42% 30.04 in
(1017 mb)
SSE 4.6 mph
(SSE 7 kph)
- 10SM
11:53
Clear
97°F / 36°C 70°F / 21°C 42% 30.06 in
(1018 mb)
Variable 3.5 mph
(Variable 6 kph)
- 10SM
10:53
Clear
91°F / 33°C 72°F / 22°C 52% 30.06 in
(1018 mb)
Variable 4.6 mph
(Variable 7 kph)
- 10SM
09:53
Clear
90°F / 32°C 72°F / 22°C 55% 30.09 in
(1019 mb)
Variable 3.5 mph
(Variable 6 kph)
- 10SM
08:53
Clear
86°F / 30°C 72°F / 22°C 62% 30.09 in
(1019 mb)
SE 5.8 mph
(SE 9 kph)
- 10SM
07:53
Clear
82°F / 28°C 72°F / 22°C 70% 30.09 in
(1019 mb)
E 5.8 mph
(E 9 kph)
- 10SM
06:53
Clear
81°F / 27°C 72°F / 22°C 74% 30.09 in
(1019 mb)
E 3.5 mph
(E 6 kph)
- 10SM
05:53
Clear
75°F / 24°C 70°F / 21°C 83% 30.06 in
(1018 mb)
E 3.5 mph
(E 6 kph)
- 10SM
04:53
Clear
79°F / 26°C 70°F / 21°C 74% 30.06 in
(1018 mb)
E 5.8 mph
(E 9 kph)
- 10SM
03:53
Clear
81°F / 27°C 70°F / 21°C 70% 30.06 in
(1018 mb)
ESE 8.1 mph
(ESE 13 kph)
- 10SM
02:53
Clear
81°F / 27°C 70°F / 21°C 70% 30.06 in
(1018 mb)
ESE 4.6 mph
(ESE 7 kph)
- 10SM
01:53
Clear
81°F / 27°C 66°F / 19°C 62% 30.06 in
(1018 mb)
E 4.6 mph
(E 7 kph)
- 10SM
00:53
Clear
81°F / 27°C 66°F / 19°C 62% 30.06 in
(1018 mb)
SE 4.6 mph
(SE 7 kph)
- 10SM
Time Weather Temperature Dewpoint Humidity Pressure Winds Precip Visibility


Weather for websites

WeatherForYou.com, LLC is not responsible for any damages or problems caused by this service. Current weather conditions are obtained from the closest station including government and personal stations which may have varying degrees of accuracy. Weather forecasts are derived from the NOAA NDFD. Like all things, this site belongs to Jesus Christ... He just trusts us to maintain it. If you have any questions or comments email webmaster@weatherforyou.com

Copyright © 2015, WeatherForYou.com LLC. All rights reserved.